Wind_Speed
42 42 43 45 46 48 49 50 50 50 51 51 52 52 52 52 54 55 56 58 59 61 64 68 72 74 73 74 75 75 75 74 73 72 68 62 55 51 47 45 43 43 44 46 48 49 51 52 53 54 54 55 56 57 58 59 61 62 63 63 64 65 66 67 68 70 71 72 74 75 76 76 76 76 76 77 78 79 80 81 82 81 81 80 79 78
42 43 44 45 47 48 49 50 51 51 51 51 51 52 52 53 54 57 58 60 61 62 65 69 73 76 74 74 75 73 73 72 69 62 56 51 48 46 45 44 44 46 48 50 51 52 53 54 54 55 55 56 58 59 60 61 61 62 62 63 63 64 65 67 69 71 72 74 75 76 77 77 77 77 77 78 79 79 80 80 81 81 79 78 76 75
43 44 45 46 47 49 50 51 51 51 51 51 52 52 53 54 55 58 61 63 64 64 66 68 73 76 74 74 73 72 71 66 58 51 48 47 46 46 45 46 48 50 52 53 53 53 54 55 55 56 57 58 59 60 60 61 62 62 63 63 64 65 67 69 71 73 74 75 77 78 78 78 78 78 78 78 78 79 80 80 80 80 79 77 75 73
44 46 47 47 48 49 51 51 52 52 52 52 52 53 54 56 57 59 62 66 67 67 66 67 70 74 72 71 71 69 63 55 48 45 45 46 47 47 48 49 51 53 54 54 53 53 54 55 56 57 58 59 60 61 62 63 63 65 66 67 68 69 70 72 73 75 76 77 78 79 80 80 80 80 79 79 79 79 80 81 80 80 78 76 73 71
46 48 49 49 49 50 51 52 52 53 54 53 54 55 56 59 60 61 63 65 68 69 68 67 68 71 70 68 67 61 52 45 44 45 45 47 49 50 51 52 52 53 53 53 53 54 55 56 57 58 59 60 62 63 65 66 67 68 70 71 72 73 74 75 76 77 78 79 80 80 81 82 83 83 82 80 79 79 79 80 80 78 78 76 73 70
48 50 50 50 51 51 52 53 53 54 55 56 56 57 59 60 62 64 65 66 67 68 69 68 65 67 68 63 57 51 45 42 44 46 48 50 51 52 53 53 53 52 52 53 54 55 56 57 58 60 61 63 65 67 68 69 71 72 74 76 76 77 77 78 79 80 81 81 81 82 83 84 85 85 84 82 80 79 78 79 78 77 76 75 73 69
50 51 52 52 52 53 54 54 55 55 55 57 59 59 61 62 64 65 66 66 67 67 68 68 65 64 62 54 48 46 44 44 46 49 51 52 52 52 52 52 52 52 53 54 55 56 58 60 62 64 65 67 68 70 72 73 75 76 77 79 80 80 81 81 82 83 83 83 83 85 85 86 87 87 86 84 82 80 78 77 77 75 74 74 72 69
51 53 53 53 53 54 55 55 56 56 57 58 59 61 62 63 64 65 66 66 66 66 66 66 65 60 52 44 44 46 47 48 49 51 53 53 52 52 51 51 50 51 53 54 57 60 61 63 65 67 69 70 72 73 75 76 78 79 80 82 83 84 84 84 85 86 86 86 86 88 88 89 89 88 87 86 83 80 78 76 75 73 72 72 71 69
53 54 54 54 54 55 56 56 57 58 58 59 60 61 62 63 64 64 64 65 65 65 65 65 62 53 43 40 43 48 50 52 53 53 53 53 52 51 50 49 49 51 54 56 59 62 64 66 67 69 72 73 75 76 78 79 81 82 83 85 86 87 87 88 89 89 89 89 90 91 92 92 91 89 88 87 85 81 78 76 74 72 71 70 69 68
54 55 55 55 55 56 57 57 58 59 59 60 61 61 62 62 62 62 63 63 63 64 64 62 54 45 40 41 45 49 52 54 54 54 54 54 53 51 50 50 52 55 57 59 61 64 66 68 69 71 74 76 78 79 80 82 83 85 86 88 89 90 91 91 92 92 92 93 94 95 95 94 93 91 90 88 86 82 78 75 72 70 69 68 67 66
55 55 55 56 56 57 58 59 59 60 61 61 62 61 61 61 60 61 61 60 61 63 60 54 48 43 40 42 46 50 52 53 54 55 55 54 52 51 51 54 56 57 60 62 64 67 68 70 72 73 75 77 80 81 83 85 86 88 89 91 92 94 94 94 95 95 95 96 97 98 98 97 95 94 92 90 88 83 79 75 72 69 68 67 66 65
55 56 56 57 57 58 59 60 60 61 61 61 61 61 60 59 59 58 57 58 59 57 51 46 45 44 43 44 48 51 52 52 53 53 53 51 50 52 55 57 59 60 62 65 67 69 71 73 74 76 77 79 82 84 86 88 89 91 93 94 95 97 97 97 98 98 98 98 99 100 100 99 97 96 95 93 90 86 80 75 71 68 66 66 65 65
55 57 58 58 59 59 60 60 61 61 61 61 60 60 59 58 56 53 54 55 53 47 43 44 47 47 46 46 49 52 53 53 53 52 51 50 50 54 58 60 62 63 65 67 70 72 74 75 77 78 80 82 84 86 88 90 92 93 95 97 98 99 100 100 101 101 100 100 100 101 101 100 99 98 98 95 92 88 83 77 72 69 66 65 65 65
55 57 59 59 60 61 61 61 61 60 59 59 59 60 59 57 54 51 50 47 41 38 41 47 49 49 49 48 49 54 56 55 53 51 51 52 53 57 61 63 65 66 68 71 73 75 77 78 80 81 83 85 87 89 91 93 94 96 97 99 100 101 102 102 103 102 102 102 102 102 102 102 101 100 99 97 94 90 85 79 73 69 66 64 64 64
55 57 59 60 60 61 61 60 59 58 57 57 59 60 58 56 54 50 44 37 33 36 43 49 52 52 51 51 50 54 58 57 54 52 54 56 57 60 64 67 68 70 72 74 76 78 80 82 83 85 87 89 91 93 94 96 97 98 100 101 102 103 104 105 105 104 104 104 104 104 104 103 102 101 100 99 95 91 87 81 74 70 67 64 64 64
55 56 59 60 60 60 59 58 58 57 56 57 58 58 55 53 51 43 37 34 34 38 43 48 54 54 54 54 52 54 59 59 56 56 59 61 62 65 68 70 72 73 76 78 80 81 84 86 87 89 91 92 94 96 98 99 100 101 102 103 104 105 106 106 106 106 106 106 106 106 106 105 104 103 102 100 97 93 88 82 76 70 67 64 64 63
55 56 58 59 59 58 57 56 57 57 57 57 56 54 52 49 42 36 34 36 37 38 41 46 53 56 56 57 55 54 57 59 58 60 63 65 66 69 71 72 74 76 78 80 82 84 86 88 91 93 95 96 98 99 101 102 103 104 105 105 106 107 108 108 108 108 108 108 108 108 108 106 106 105 104 102 98 93 89 83 77 71 67 65 64 63
55 54 56 59 58 57 57 56 57 57 57 57 54 52 48 40 34 34 37 38 38 39 40 42 51 58 58 57 57 56 56 56 58 62 65 67 69 70 72 74 75 77 80 82 84 87 89 91 94 96 98 100 102 103 104 105 106 107 108 108 109 109 110 110 110 109 110 110 110 110 110 108 107 106 105 102 98 93 89 83 77 72 68 65 63 62
54 52 53 57 58 57 57 57 57 57 56 55 52 49 42 32 31 37 40 41 41 41 40 40 48 61 61 56 57 57 56 56 59 64 67 68 70 71 73 75 76 79 81 84 86 89 91 94 96 99 101 103 105 106 107 108 109 110 111 111 111 112 112 112 112 112 112 112 112 111 111 110 108 107 105 103 98 94 89 83 76 71 68 65 63 61
54 52 51 54 57 56 56 57 56 55 54 52 48 42 35 32 34 39 42 45 45 44 45 41 45 62 65 57 56 58 58 59 61 64 68 70 72 74 76 77 78 81 84 86 89 91 94 96 99 101 104 106 107 109 110 111 112 113 114 114 114 114 114 114 114 114 114 113 113 112 112 111 109 107 105 102 97 93 89 83 77 71 67 65 63 61
53 51 50 53 55 55 56 56 54 53 51 46 40 36 34 35 37 38 42 48 49 49 50 44 43 60 67 60 59 61 61 63 65 66 70 73 75 77 79 81 82 84 87 89 92 94 96 99 101 104 106 108 110 111 113 114 115 116 117 117 117 116 116 116 115 115 115 115 115 113 112 111 109 106 104 100 95 91 88 83 77 71 67 65 63 61
51 50 50 51 54 55 56 55 52 50 45 38 35 35 38 39 39 40 43 47 50 51 53 47 43 56 67 64 63 65 64 66 68 70 73 76 78 81 83 85 86 88 91 93 95 98 100 102 104 106 108 110 111 113 115 116 117 118 119 119 119 118 117 117 117 117 117 117 116 115 113 111 108 105 101 97 92 88 86 81 76 71 67 65 63 61
50 49 49 50 52 54 54 53 50 45 37 34 36 38 40 41 42 43 45 46 48 50 53 50 45 53 64 66 67 68 67 70 72 75 77 79 81 84 86 88 90 92 95 97 99 101 103 105 107 109 110 112 114 115 117 118 119 120 120 120 120 119 119 119 119 118 118 118 117 116 113 110 106 103 99 94 88 85 83 79 75 70 67 64 63 60
50 49 48 47 48 51 54 52 45 37 33 35 40 41 42 43 44 46 47 47 47 50 53 53 50 53 62 67 69 70 71 73 77 79 82 83 85 87 89 91 92 94 97 99 101 104 106 108 110 112 114 116 117 118 119 120 121 121 121 121 121 120 121 121 120 120 120 119 118 115 112 108 104 100 96 90 85 82 79 77 74 70 66 63 62 60
50 50 48 45 43 45 48 47 40 35 37 41 43 43 44 45 46 47 48 48 48 50 54 58 54 55 64 70 71 73 75 77 80 83 86 88 89 90 92 93 94 97 99 101 103 106 108 110 113 115 117 119 120 121 121 121 122 122 122 123 123 122 122 122 122 121 120 119 117 114 110 105 101 97 92 87 82 79 76 75 72 69 64 62 62 60
49 49 48 45 42 39 36 34 33 35 41 44 45 45 45 47 48 50 50 52 53 52 56 62 59 57 65 73 73 75 78 79 82 85 88 90 92 93 95 96 98 100 102 104 107 109 111 114 116 118 121 122 123 123 123 123 123 123 123 124 124 124 124 123 122 121 120 118 115 111 106 101 97 93 88 83 80 76 74 72 71 68 64 61 60 59
45 46 46 44 42 37 31 31 33 37 41 44 45 46 47 48 51 53 55 57 59 57 58 65 67 63 67 73 74 77 79 80 82 85 88 91 93 94 97 99 101 104 106 109 112 114 116 118 119 121 122 124 125 125 126 126 126 126 125 126 125 125 123 122 120 119 117 115 111 107 102 97 93 89 84 80 77 75 73 71 70 67 64 61 60 58
42 42 42 40 38 36 34 36 38 39 42 44 45 46 48 51 54 57 61 62 64 64 63 66 71 72 73 74 75 79 81 82 84 86 88 92 94 96 99 101 103 107 110 113 116 119 120 121 122 123 124 126 127 127 127 127 127 128 127 127 126 124 122 120 118 116 113 110 106 101 96 92 88 84 80 77 75 73 72 71 69 66 63 60 59 57
37 36 35 34 36 39 38 39 41 42 43 45 46 48 51 55 58 61 65 68 69 70 70 70 73 77 79 78 78 81 84 85 87 89 91 95 97 100 102 104 107 110 113 117 119 121 123 124 125 126 127 128 128 128 128 128 128 128 127 126 125 123 120 117 114 111 107 103 100 95 91 88 85 81 77 75 74 72 71 70 68 65 62 60 58 56
30 30 31 33 38 42 42 42 44 45 46 48 50 53 56 60 62 65 68 72 73 74 75 76 76 79 82 83 83 85 88 89 91 93 95 98 102 105 107 109 112 114 117 120 123 125 126 128 128 129 129 130 130 130 129 128 126 125 124 123 121 119 116 112 108 104 100 96 93 90 88 85 82 79 76 74 73 71 70 69 67 65 62 59 57 55
28 30 33 34 38 44 45 45 47 48 50 52 55 58 61 63 65 68 71 75 77 77 79 80 80 81 83 85 86 87 90 94 97 99 101 103 106 108 111 113 116 118 121 124 126 128 129 130 131 131 131 131 131 130 129 127 124 121 120 118 116 113 110 107 103 99 95 91 89 87 86 84 81 79 76 74 72 71 69 68 66 64 61 58 56 54
30 32 34 36 39 44 46 47 50 53 54 56 58 61 64 66 68 70 74 78 80 80 81 82 84 84 85 87 87 89 92 96 101 104 106 107 109 112 115 118 121 124 126 128 130 131 132 133 133 132 132 131 130 128 126 123 119 116 114 113 111 108 105 102 98 94 91 88 87 86 85 83 81 79 76 73 71 70 68 66 65 62 60 57 55 52
32 34 36 37 39 44 47 49 52 55 57 59 61 63 66 68 70 72 75 80 83 84 84 85 86 87 89 91 91 92 94 97 101 105 109 112 114 117 119 122 125 128 130 132 134 134 135 135 134 133 132 130 128 125 122 118 114 111 108 107 104 101 99 97 95 92 90 88 86 86 84 82 80 78 74 71 70 69 67 64 63 61 58 56 54 51
34 35 37 39 40 44 49 52 55 58 60 61 63 65 68 69 71 73 76 81 85 87 89 90 91 92 94 95 97 98 98 100 103 108 112 116 119 122 124 127 129 131 133 134 135 136 136 136 135 132 130 128 125 122 118 114 110 106 104 103 101 99 97 96 94 93 91 88 87 85 82 80 78 76 72 70 68 67 65 62 60 59 57 55 53 50
35 37 39 42 43 46 50 54 57 60 61 63 65 68 69 72 74 75 78 83 88 89 90 93 94 95 97 99 101 103 103 104 107 111 116 119 123 126 129 131 133 135 136 137 138 137 137 136 134 131 128 125 122 118 114 109 106 104 102 102 102 100 99 96 94 93 90 88 85 82 80 78 76 73 70 67 66 64 62 60 58 57 55 53 51 48
38 41 43 45 48 50 53 56 60 62 64 65 68 71 73 75 78 78 79 84 89 91 92 93 95 97 99 101 103 105 107 108 109 114 119 123 126 129 132 134 137 139 140 140 140 139 138 136 133 129 125 121 119 116 111 107 104 102 101 100 100 98 97 94 91 89 87 84 82 79 76 75 73 70 67 65 63 62 59 57 56 54 52 51 49 47
42 45 48 50 52 54 56 59 62 66 68 69 72 75 77 78 80 81 81 83 89 92 94 95 96 98 101 103 105 108 110 111 112 115 121 125 128 131 135 138 140 142 143 143 143 141 138 134 130 125 120 117 115 113 110 106 104 101 98 97 95 94 92 89 86 84 81 79 77 74 72 71 69 66 64 62 61 59 57 55 54 52 50 49 47 45
46 49 52 54 56 58 60 63 65 68 71 74 76 78 80 81 83 85 85 87 91 94 96 98 100 101 103 105 107 110 113 115 116 119 123 127 131 134 137 140 142 144 145 146 144 141 135 130 125 120 116 112 110 109 107 105 102 98 95 93 91 89 86 83 81 79 76 75 73 70 68 67 65 63 61 59 58 56 54 53 51 50 48 46 45 43
51 53 56 58 61 63 66 68 71 73 75 78 80 81 83 84 86 88 89 89 92 96 98 101 103 105 107 109 111 115 119 122 124 126 129 133 136 139 141 144 145 146 146 145 142 137 132 127 123 119 116 114 111 108 105 102 98 95 93 90 87 84 81 78 76 74 72 70 69 67 65 64 62 60 58 57 56 54 52 51 49 48 46 45 43 42
54 56 59 62 65 68 70 73 75 77 80 82 83 84 85 87 89 91 91 92 93 96 99 102 105 108 111 114 117 121 125 129 132 134 137 139 141 143 145 146 147 146 144 141 138 135 131 127 124 120 118 115 111 106 103 99 96 93 91 88 84 80 76 73 72 71 68 67 65 64 62 61 58 57 56 55 53 51 49 48 47 46 44 43 42 41
56 59 62 65 68 70 73 75 77 80 83 85 86 88 89 89 90 92 94 96 97 98 100 103 108 112 116 119 123 126 130 133 137 139 141 143 144 145 146 146 145 143 140 138 135 133 130 127 124 121 117 113 108 104 101 99 95 92 88 84 80 76 73 70 69 67 65 64 62 61 59 58 55 54 54 52 50 49 47 46 45 44 42 41 40 40
59 61 64 67 69 72 75 77 79 81 85 87 88 90 92 92 92 93 95 98 101 103 105 108 113 117 121 124 127 130 133 136 138 141 142 144 145 146 145 144 142 140 137 135 133 130 127 124 121 118 115 111 106 101 98 95 92 89 85 82 78 74 71 68 66 64 62 61 59 58 56 54 53 52 52 50 48 47 45 44 43 42 40 39 39 38
61 64 66 69 71 74 77 79 82 84 87 89 89 90 92 94 96 97 98 100 104 108 111 114 118 122 126 129 131 133 135 137 139 141 143 144 145 145 144 142 140 137 135 133 130 127 124 121 119 116 113 109 103 99 95 91 88 85 82 79 76 72 69 66 64 62 60 58 57 55 54 52 51 51 49 47 45 45 43 42 41 40 39 38 38 38
64 66 69 72 74 77 80 82 85 87 89 91 91 91 94 96 99 101 103 106 109 113 116 119 122 125 129 132 134 135 137 140 142 143 144 145 145 144 142 139 137 135 133 131 130 128 125 122 118 115 111 107 102 96 92 87 84 81 79 76 73 70 67 65 62 60 58 56 54 53 52 50 49 48 46 44 43 43 42 41 40 38 37 37 37 37
67 69 72 75 78 81 84 85 86 88 90 93 94 95 96 99 102 106 109 112 115 118 121 123 126 128 131 134 136 138 140 142 144 145 145 145 143 141 138 136 135 133 132 130 129 127 124 121 117 113 109 105 100 94 89 85 82 79 77 75 72 69 66 63 60 58 56 54 52 51 49 48 47 46 44 42 41 41 40 39 38 37 36 36 36 36
71 73 76 78 82 85 88 88 88 89 91 94 96 97 100 102 105 108 112 115 118 121 124 127 129 132 134 137 139 141 143 144 145 145 144 142 139 136 135 133 133 132 130 129 127 125 122 119 116 112 108 103 98 92 87 84 80 77 75 73 71 68 65 62 59 56 54 52 50 49 47 46 45 43 41 40 40 39 39 38 37 36 36 36 35 35
74 77 79 83 85 87 88 89 89 89 91 94 96 99 102 106 109 112 115 117 120 123 126 129 132 135 137 140 142 144 144 145 144 142 139 137 135 134 133 132 131 130 129 127 124 122 120 117 114 111 106 100 95 91 86 82 78 76 73 71 69 66 63 60 57 54 51 49 48 47 45 44 43 41 39 39 38 38 38 37 36 35 35 35 34 34
78 81 83 85 87 88 88 88 88 90 93 97 99 102 104 107 110 113 117 120 123 126 129 131 134 137 140 143 144 145 144 143 140 137 135 133 133 132 132 131 130 129 126 124 122 120 117 114 111 107 103 97 93 90 86 82 78 75 73 70 67 64 61 57 54 51 49 48 46 45 43 42 40 39 38 37 37 36 36 36 35 35 34 34 33 33
83 85 86 86 87 88 89 89 89 90 93 98 101 104 106 109 111 115 119 123 126 129 131 134 137 139 141 143 144 143 140 137 134 132 131 131 131 131 130 129 128 126 123 121 119 117 114 110 107 104 100 96 92 89 86 83 79 76 72 69 66 62 59 56 52 49 47 46 44 43 41 39 38 37 36 36 35 34 34 34 34 34 34 33 33 33
86 87 87 86 86 87 88 90 92 93 95 99 103 107 110 113 116 120 123 126 129 132 135 137 138 140 141 141 141 138 134 131 129 129 129 129 129 129 128 127 125 122 120 118 116 113 110 108 105 101 98 96 92 88 85 81 78 75 71 68 64 61 58 55 51 49 46 44 43 41 39 38 36 36 35 34 33 33 33 33 33 33 33 32 32 32
87 87 87 86 86 87 90 94 97 100 102 105 109 112 116 119 121 124 127 130 133 136 138 139 139 139 138 136 133 131 129 128 127 127 127 127 127 127 126 124 122 120 118 116 113 110 108 106 102 99 96 94 91 87 83 79 76 73 70 67 63 60 57 54 51 48 46 44 42 40 38 37 36 35 34 33 32 32 32 32 32 32 32 32 31 32
Wind_Direction
315 314 314 314 313 312 311 310 309 309 308 307 307 307 307 307 307 308 309 309 310 311 311 311 311 311 312 312 312 313 314 315 316 317 317 318 322 326 328 329 329 329 329 327 326 325 324 324 323 323 321 320 319 319 318 317 317 316 315 314 313 312 312 312 313 313 314 314 315 315 315 315 314 314 314 313 310 308 306 304 303 303 302 301 300 299
314 314 313 313 313 313 312 311 310 309 308 308 307 308 308 309 309 310 310 310 311 312 313 313 312 311 313 313 313 315 316 317 318 319 321 325 329 331 331 329 328 327 326 326 325 325 325 324 323 322 321 321 320 320 319 318 316 315 315 314 314 314 314 315 316 317 317 317 317 317 317 317 317 317 317 315 313 310 308 306 305 304 303 302 301 300
314 314 314 314 314 313 312 311 310 309 309 308 308 309 310 310 311 311 311 312 312 314 314 314 312 312 313 314 315 316 318 319 321 324 326 329 330 331 329 328 326 325 325 326 326 326 325 324 323 323 322 322 321 320 319 318 317 317 316 317 317 317 318 319 319 320 320 320 320 320 319 319 319 319 319 317 315 313 310 308 307 305 304 303 302 301
314 315 315 316 315 314 313 312 311 310 310 309 309 310 310 311 311 312 312 313 314 314 314 314 313 312 313 316 317 318 319 322 325 327 328 329 329 328 327 326 325 325 326 326 327 326 325 325 324 323 323 322 322 321 321 321 321 321 320 320 321 321 321 322 322 322 322 322 322 322 321 321 321 321 320 319 317 315 313 310 308 307 306 304 304 302
314 316 316 316 315 314 313 312 312 311 311 311 311 311 312 312 313 313 314 315 315 315 314 314 313 313 315 318 318 318 322 325 326 327 328 327 327 327 326 325 325 326 327 327 327 327 326 325 324 323 323 324 324 324 324 324 324 324 324 324 324 323 323 323 323 324 323 323 323 323 323 323 323 322 322 321 319 317 315 312 310 308 307 306 305 304
314 316 316 316 315 314 314 313 312 312 312 313 313 313 313 314 315 315 316 316 315 315 314 314 314 314 317 319 319 319 324 326 325 326 327 326 326 326 326 326 326 327 328 328 327 326 325 324 324 325 326 326 327 327 327 327 327 327 326 325 325 324 324 325 325 325 325 325 325 325 325 325 325 324 323 322 321 319 317 314 311 310 308 307 306 305
314 316 316 315 315 314 314 314 313 313 313 314 314 314 315 315 316 317 317 316 315 315 314 313 315 317 319 321 320 320 323 324 325 325 325 326 326 326 326 327 328 329 329 328 327 326 326 326 327 328 328 328 329 329 328 328 328 327 327 326 326 325 325 326 326 326 325 325 326 326 326 326 326 325 324 324 322 321 318 315 312 311 309 308 307 306
313 315 315 315 315 314 314 314 314 314 314 314 314 314 316 317 317 317 317 316 315 315 314 314 316 320 323 322 320 320 322 323 324 324 324 325 325 326 327 328 329 328 328 328 328 328 327 328 329 329 329 329 329 329 329 329 328 328 327 327 326 326 326 327 327 326 326 326 327 327 327 327 326 326 325 324 323 322 320 316 313 311 310 308 308 307
313 314 314 314 314 314 314 314 314 314 314 314 314 315 317 317 317 316 316 316 316 315 314 314 317 323 326 323 319 319 321 322 323 323 324 324 325 326 327 327 326 327 328 329 328 328 328 329 330 330 329 329 329 329 329 329 328 328 327 327 327 326 327 327 327 327 327 327 328 328 327 327 326 326 326 325 324 322 321 318 314 312 310 308 308 307
313 313 313 314 314 313 313 314 314 314 314 314 315 316 317 316 316 316 316 317 316 314 314 315 318 325 327 322 319 319 320 322 323 323 324 324 325 326 325 325 326 328 329 329 328 328 329 329 330 330 329 329 329 329 328 328 328 328 327 327 327 327 327 328 327 327 328 328 328 328 327 327 326 326 326 325 324 323 322 319 316 313 310 308 307 306
313 313 313 313 313 313 313 313 313 313 314 315 316 316 316 316 316 317 317 317 315 314 314 314 317 324 326 321 319 318 320 321 322 323 323 323 324 325 325 325 327 329 329 329 328 328 329 329 329 329 328 328 328 328 328 328 328 327 327 327 327 327 327 327 327 328 328 328 328 327 327 326 326 327 326 325 324 323 322 320 317 314 311 309 307 306
312 312 312 313 313 313 313 313 313 314 315 315 315 315 315 315 316 318 318 316 314 314 314 312 315 321 323 321 319 318 319 321 322 322 321 321 323 324 325 326 328 329 329 328 328 328 329 328 328 328 328 328 328 327 327 327 327 327 327 327 327 327 327 327 327 328 327 327 327 326 326 326 326 327 327 326 325 324 323 321 318 314 311 309 307 306
312 311 311 312 312 312 312 313 313 314 315 315 315 314 314 315 317 318 317 314 314 315 312 310 313 318 321 322 320 318 319 321 322 321 319 320 322 324 325 326 327 328 328 328 327 327 328 328 327 328 328 327 327 327 327 327 327 327 327 327 327 326 327 327 327 327 326 326 326 326 325 326 326 327 327 326 326 324 323 322 319 315 312 310 308 306
311 311 311 311 311 312 312 313 313 314 314 315 314 313 314 317 319 318 316 315 316 316 312 311 312 315 320 323 322 319 320 322 322 321 318 319 322 324 325 325 326 327 327 326 326 327 327 327 327 327 327 327 327 327 327 327 327 327 326 326 326 326 326 326 325 325 325 325 325 325 325 325 326 327 327 326 326 325 323 322 320 316 313 311 309 307
311 310 310 310 310 311 312 313 313 313 314 314 313 314 317 319 319 318 317 317 319 317 314 312 312 314 319 323 324 321 320 321 322 320 318 319 322 324 324 324 325 326 326 325 326 326 326 327 327 327 327 327 327 327 327 327 327 326 326 326 326 325 325 325 324 324 324 324 324 324 324 325 326 326 326 326 326 325 323 322 320 317 314 311 309 307
310 310 309 309 310 311 312 313 313 313 313 313 313 316 318 320 319 318 318 320 322 320 317 315 312 314 319 324 326 323 320 321 323 321 319 320 322 324 323 324 325 325 325 325 325 326 326 326 326 327 327 327 327 327 327 327 326 326 325 325 325 324 324 323 323 323 323 323 324 324 324 325 325 326 326 325 325 324 323 321 320 317 314 312 310 307
310 310 309 309 310 311 312 313 312 312 313 313 315 318 319 319 318 318 318 319 321 320 319 317 313 313 318 323 326 324 321 321 322 320 319 320 322 323 323 323 324 324 324 324 325 325 325 326 326 326 326 326 327 327 326 326 325 325 325 324 324 323 322 322 322 323 323 323 323 323 324 324 325 325 325 325 324 323 322 320 319 317 314 313 311 308
310 311 311 311 311 312 313 313 312 312 313 315 318 319 319 320 319 317 318 318 320 321 320 319 313 310 316 322 324 323 321 322 322 320 319 321 322 322 321 322 323 323 323 324 324 324 325 325 325 326 326 326 326 326 325 325 325 324 324 323 323 322 321 321 322 322 322 322 322 323 323 324 324 324 324 324 323 323 321 320 319 317 314 313 311 308
310 312 312 312 312 313 313 312 312 312 314 317 319 318 319 322 320 316 316 317 321 322 321 323 315 308 313 323 323 321 322 324 323 320 320 320 320 321 321 321 323 323 323 323 324 324 324 324 325 325 325 325 325 325 324 324 324 323 323 322 321 321 321 321 321 322 322 322 322 322 322 323 323 324 323 323 323 322 320 319 318 316 314 313 311 309
311 312 313 312 311 312 311 311 312 313 316 319 318 317 320 322 319 317 317 317 321 323 322 328 320 308 313 324 323 320 323 324 323 321 319 319 320 320 321 322 323 323 323 323 323 324 324 324 324 324 324 324 323 323 323 323 322 322 321 321 321 321 321 321 321 321 321 321 321 321 321 322 322 322 322 322 322 321 319 318 317 316 314 312 311 309
311 312 313 311 310 311 310 309 312 315 318 318 315 316 320 321 318 317 317 317 322 322 321 329 326 310 313 323 322 320 324 324 322 320 319 319 320 321 321 322 323 324 323 323 323 324 324 324 324 323 323 323 322 322 322 321 321 321 320 320 320 320 320 320 320 320 320 320 320 320 321 321 321 321 321 321 320 320 318 316 316 315 314 312 311 309
311 312 312 311 310 310 309 310 314 317 319 316 313 317 320 319 318 317 317 318 321 321 319 327 328 314 314 320 319 320 324 322 321 320 319 319 320 320 321 322 323 324 323 324 323 323 324 323 323 322 322 321 321 321 320 320 320 320 319 319 319 319 319 319 319 319 319 319 319 320 320 320 320 320 320 319 319 318 316 315 315 314 313 312 311 309
310 311 310 310 310 309 309 311 315 318 318 314 314 318 320 320 319 318 317 318 319 319 318 323 327 318 314 316 317 321 323 321 320 320 319 320 320 320 321 322 323 323 323 323 323 323 323 323 322 321 321 320 320 320 320 320 319 319 318 318 318 318 318 318 318 318 318 318 318 318 319 319 319 319 318 318 318 317 315 314 313 313 312 312 310 308
310 310 309 310 311 310 310 312 317 319 316 314 316 319 320 319 318 317 317 318 319 319 318 320 324 321 315 314 317 321 322 321 320 319 319 319 319 320 321 322 322 322 322 322 322 322 322 321 321 320 320 320 320 320 319 319 318 318 318 317 318 318 318 317 318 318 317 317 317 317 318 318 318 317 317 316 316 315 314 313 312 312 311 311 309 307
310 310 310 310 310 308 308 312 317 319 316 315 317 319 320 319 317 317 317 317 318 320 318 317 322 323 315 313 318 321 321 320 319 319 318 318 318 319 320 321 321 321 321 321 321 321 321 321 320 320 320 320 319 319 318 318 318 317 317 317 317 317 317 317 317 317 317 316 316 316 317 317 316 316 315 315 315 314 313 311 311 310 311 310 309 307
311 311 310 311 310 307 308 311 315 315 314 315 317 319 320 318 317 317 317 317 317 320 319 316 320 323 316 314 319 320 319 319 318 317 316 316 317 319 320 321 321 320 320 320 321 321 321 321 320 320 319 319 318 318 317 317 317 317 317 317 317 317 316 316 316 316 315 315 315 315 315 315 315 314 314 314 313 312 312 311 310 310 310 310 308 306
313 312 311 311 310 309 312 314 314 314 313 314 317 319 319 318 317 317 316 316 317 320 321 318 320 323 317 316 320 319 317 318 317 316 316 315 316 317 319 320 320 320 321 321 321 321 321 321 320 319 318 317 317 317 317 317 317 317 317 317 316 316 315 315 315 315 314 314 314 314 314 314 314 313 313 312 312 312 311 310 309 309 309 309 307 305
314 311 310 312 310 310 315 317 316 316 314 315 317 318 318 317 317 316 316 317 318 321 323 321 321 321 319 319 320 318 317 317 317 316 316 315 315 318 320 321 320 320 321 321 321 321 320 320 319 318 317 317 317 317 317 318 318 317 317 316 315 315 315 314 314 314 313 313 313 313 313 313 312 312 312 311 311 311 310 309 308 308 308 308 307 305
313 311 311 314 311 311 316 318 316 316 315 315 317 318 317 316 317 318 318 318 320 321 322 322 321 320 319 320 321 318 317 318 317 317 316 315 316 319 321 321 321 321 320 320 320 319 319 318 318 317 317 317 317 318 318 318 317 316 316 315 315 314 314 314 313 313 312 312 312 312 312 312 311 311 311 310 310 310 309 308 307 307 307 307 306 304
313 312 313 316 312 311 316 317 316 315 315 316 318 319 318 318 318 319 319 319 319 321 322 322 321 320 319 320 320 318 318 318 318 318 317 317 318 320 321 321 321 320 320 319 319 318 318 318 318 318 318 318 318 318 318 317 317 316 315 314 314 313 313 313 312 312 312 312 312 312 311 311 311 311 310 310 309 308 308 307 306 306 306 306 305 303
314 314 315 317 314 311 315 316 314 315 316 317 319 319 318 318 319 320 319 318 318 320 321 320 320 319 318 318 319 319 319 319 319 319 318 318 319 320 321 320 319 319 319 318 318 318 318 318 318 319 319 318 318 318 317 317 316 316 315 314 314 313 313 312 312 312 312 312 312 311 310 310 310 310 309 309 308 307 306 305 305 304 305 305 304 302
315 316 316 318 315 312 313 315 314 315 316 318 318 318 317 317 319 320 320 318 317 319 319 319 318 318 317 317 318 319 320 321 321 320 318 318 319 320 320 319 319 318 318 318 318 318 318 318 319 319 319 318 318 318 317 317 316 316 315 314 314 313 313 312 312 312 312 312 312 311 310 310 310 309 308 308 307 306 305 304 303 303 303 303 302 301
315 316 316 316 315 312 313 314 314 314 315 317 318 317 317 317 319 320 319 317 317 318 318 317 317 317 317 318 319 321 321 321 321 319 318 318 319 319 319 319 318 318 318 318 318 318 318 318 319 319 319 319 319 318 318 318 317 317 316 315 314 313 313 312 312 312 312 312 311 310 310 309 308 307 307 306 305 304 303 303 302 302 302 302 301 300
316 316 315 314 314 313 313 314 314 313 315 317 318 317 316 317 319 320 319 317 316 317 317 317 318 318 318 319 320 321 322 322 321 319 318 318 319 319 318 318 317 317 317 318 318 318 319 319 319 320 320 320 320 319 319 318 318 317 317 315 314 314 313 313 313 312 312 311 310 310 309 308 306 306 305 305 304 302 302 301 301 300 301 301 300 299
314 313 313 313 314 314 313 314 313 313 315 317 317 316 317 318 320 320 319 317 316 316 316 317 317 318 319 320 321 321 322 322 321 319 318 318 318 317 317 317 317 317 318 318 319 319 320 320 321 322 322 322 321 320 319 319 319 318 318 316 315 314 313 312 312 311 310 310 309 308 307 306 305 304 304 303 302 301 301 300 299 299 300 299 299 297
312 312 313 314 315 315 315 315 314 314 316 318 317 317 318 320 319 319 318 316 314 315 316 316 317 318 319 320 320 320 320 321 320 319 317 317 316 316 316 317 317 318 319 319 320 321 321 322 323 323 323 323 322 321 320 320 320 319 318 315 313 312 311 311 310 309 309 308 307 306 305 304 303 303 302 301 300 299 299 299 298 298 299 298 297 296
314 314 315 316 316 316 315 315 315 316 317 319 318 317 318 319 317 317 317 315 313 314 315 316 318 318 319 319 319 319 319 319 318 317 316 316 316 316 317 318 318 319 319 320 321 322 322 323 323 323 324 323 323 322 321 321 319 318 316 314 312 311 310 310 309 308 307 306 305 305 303 302 302 301 301 300 299 299 299 298 298 298 298 297 296 295
315 315 315 316 316 315 316 316 316 318 319 319 317 317 317 317 316 316 317 316 315 315 316 317 318 319 319 318 318 317 317 316 317 317 316 316 317 317 318 318 319 319 320 320 321 321 322 323 324 324 324 324 324 323 321 320 318 317 316 314 313 312 311 310 309 308 307 306 305 304 302 302 301 301 300 299 298 298 298 298 297 297 297 296 295 294
315 316 316 316 317 317 317 318 318 319 319 317 316 316 316 315 315 316 317 317 316 316 317 318 318 318 317 317 316 316 316 317 318 319 319 318 319 319 319 320 320 320 320 320 320 321 323 324 325 326 326 326 325 323 321 319 318 318 316 315 314 313 313 312 309 308 307 306 305 304 303 302 301 301 300 298 298 298 298 297 297 296 296 295 294 292
316 316 317 318 318 318 318 318 318 318 317 316 315 315 315 315 315 316 317 316 316 317 317 318 317 316 316 316 317 317 318 319 320 320 320 320 321 321 321 321 320 320 320 321 322 323 325 326 327 327 327 326 324 322 321 320 320 319 318 317 316 315 314 312 310 308 307 306 305 304 303 302 301 300 299 298 298 298 297 296 296 295 295 294 293 292
316 317 318 318 318 317 317 317 317 317 315 315 315 315 315 315 316 316 316 317 317 317 317 316 316 316 316 318 319 320 320 320 321 321 321 321 321 320 320 320 320 320 321 322 324 325 326 327 327 327 326 325 324 323 322 321 320 320 319 318 318 317 315 313 310 309 308 306 305 304 303 302 302 299 298 298 298 297 296 295 294 294 294 293 291 290
316 317 317 317 316 315 315 315 316 316 314 314 315 315 315 315 315 316 317 317 317 317 317 317 317 318 318 320 320 321 321 320 320 320 320 319 319 319 319 320 320 321 323 324 324 325 326 327 327 326 325 325 324 324 323 321 321 320 320 319 319 318 316 314 312 310 309 308 307 305 304 303 301 299 298 298 297 296 295 294 293 293 293 292 290 289
316 315 315 315 315 314 314 315 316 315 314 314 315 315 315 315 316 317 318 317 317 317 318 319 319 319 320 320 321 320 320 319 319 319 319 319 319 319 320 321 321 322 323 324 325 326 326 327 327 326 325 325 325 325 323 322 321 321 320 320 320 318 317 315 313 312 311 309 308 306 304 303 300 298 298 298 297 296 295 293 293 292 292 290 289 288
315 315 315 315 314 314 315 316 316 315 314 314 314 315 316 316 317 318 318 318 319 319 319 320 320 320 320 320 319 319 318 318 318 318 319 319 319 320 321 321 322 322 323 324 325 326 327 327 327 326 326 326 326 325 324 323 323 322 322 321 321 319 318 317 315 314 312 311 309 307 304 302 300 299 299 298 296 295 294 293 292 292 291 289 288 286
315 315 315 315 315 315 315 316 315 315 315 315 316 317 318 318 319 319 319 320 320 320 320 320 320 319 319 318 318 318 318 318 319 319 319 320 320 320 321 321 322 323 324 325 325 326 326 326 326 326 326 326 326 326 326 325 325 324 323 323 322 321 320 319 317 315 313 312 309 307 305 303 301 300 299 298 295 294 293 292 292 291 290 289 287 286
315 315 315 315 315 316 316 316 316 317 317 317 318 319 319 319 319 320 320 320 320 319 319 319 318 318 318 318 318 318 318 319 319 319 320 320 320 320 321 321 322 323 324 325 325 325 325 325 326 326 327 327 327 327 327 327 326 326 325 324 323 322 321 320 318 316 314 312 310 308 306 304 302 301 300 297 295 294 293 292 292 291 289 288 286 285
315 315 316 316 316 316 316 317 317 318 317 317 318 319 319 319 320 319 319 318 318 318 317 317 317 318 318 318 318 318 319 319 319 319 319 319 320 320 321 321 322 323 324 324 324 325 325 326 326 326 326 327 327 327 328 328 327 327 326 325 324 323 322 320 319 317 315 313 311 309 308 306 304 302 299 296 295 294 293 292 292 291 288 287 285 284
315 316 316 316 316 316 316 317 317 318 318 318 318 318 318 318 318 317 317 317 317 317 317 317 317 317 318 318 318 319 319 319 319 319 319 319 320 320 321 322 323 323 324 324 324 325 325 325 325 325 326 327 328 328 328 328 328 328 327 327 325 324 322 321 319 317 316 314 312 311 309 307 305 302 299 296 295 294 292 292 291 290 288 286 284 283
315 316 315 315 316 316 317 317 317 317 317 317 316 316 316 315 316 316 316 316 317 317 317 317 317 317 318 318 318 318 318 318 318 319 319 319 320 321 321 322 322 323 323 324 324 324 324 325 325 326 326 327 328 329 329 328 328 328 328 327 326 325 323 322 320 319 317 316 314 312 310 308 305 302 299 297 296 294 293 292 291 289 287 286 284 282
315 315 315 316 317 317 317 316 316 315 315 314 314 315 315 316 316 317 317 317 317 317 317 317 317 317 317 317 317 317 317 318 318 319 319 320 320 321 321 321 322 323 323 323 323 324 325 325 326 327 327 328 328 328 328 328 327 327 327 327 327 326 324 323 322 321 319 318 316 314 312 309 306 303 301 299 297 295 294 292 291 289 287 286 284 282
315 315 316 316 317 317 316 315 315 315 316 316 316 316 317 317 317 317 317 316 316 316 316 316 316 316 316 316 316 317 318 318 319 319 320 320 320 320 320 321 322 323 322 323 324 325 326 326 327 327 327 327 327 327 327 327 327 327 327 327 327 327 326 324 323 322 321 319 317 315 313 310 307 304 302 300 299 297 295 293 291 289 287 286 284 282
Height
10697 10694 10692 10689 10687 10684 10681 10678 10675 10672 10669 10665 10661 10657 10654 10650 10645 10641 10638 10634 10632 10629 10622 10615 10606 10601 10601 10595 10588 10584 10578 10572 10568 10563 10556 10550 10546 10542 10537 10534 10530 10528 10524 10521 10518 10513 10509 10505 10501 10497 10493 10489 10485 10482 10478 10473 10469 10464 10460 10455 10449 10444 10438 10432 10426 10419 10412 10405 10398 10390 10383 10377 10370 10363 10356 10347 10340 10333 10326 10319 10312 10305 10300 10294 10288 10282
10694 10691 10688 10685 10683 10679 10677 10673 10670 10667 10664 10660 10656 10652 10648 10645 10640 10634 10631 10628 10626 10624 10617 10609 10598 10591 10591 10587 10580 10577 10571 10566 10562 10556 10551 10546 10542 10539 10534 10531 10527 10524 10520 10517 10513 10508 10503 10499 10495 10491 10488 10483 10479 10475 10471 10466 10462 10457 10452 10447 10442 10436 10430 10424 10417 10410 10403 10396 10388 10381 10373 10366 10359 10352 10345 10337 10329 10321 10315 10308 10300 10293 10288 10282 10276 10270
10689 10687 10684 10681 10678 10675 10671 10668 10665 10661 10659 10655 10651 10647 10643 10639 10636 10630 10625 10621 10618 10617 10612 10605 10593 10584 10582 10579 10572 10569 10564 10559 10555 10551 10546 10542 10539 10536 10532 10528 10523 10519 10515 10511 10507 10503 10498 10494 10489 10485 10481 10477 10473 10468 10464 10459 10454 10449 10444 10439 10433 10427 10421 10415 10408 10401 10393 10386 10379 10371 10363 10355 10348 10341 10335 10327 10318 10310 10303 10296 10289 10282 10276 10271 10265 10259
10685 10682 10679 10676 10673 10670 10666 10663 10659 10656 10653 10650 10646 10642 10638 10634 10631 10627 10621 10614 10609 10608 10605 10601 10590 10579 10577 10573 10565 10562 10558 10553 10550 10546 10543 10539 10535 10532 10528 10524 10519 10515 10510 10505 10502 10498 10493 10488 10484 10480 10475 10471 10466 10461 10456 10451 10446 10440 10434 10429 10423 10418 10412 10406 10399 10392 10384 10376 10369 10361 10352 10344 10337 10330 10323 10316 10308 10300 10292 10284 10277 10271 10264 10259 10255 10249
10680 10677 10674 10671 10668 10665 10662 10658 10654 10650 10646 10644 10641 10637 10633 10628 10624 10621 10617 10610 10603 10598 10595 10593 10587 10574 10570 10568 10560 10555 10554 10549 10546 10543 10539 10535 10531 10527 10523 10519 10515 10510 10505 10500 10496 10492 10488 10483 10478 10474 10469 10464 10459 10453 10448 10442 10437 10431 10425 10419 10413 10408 10402 10396 10389 10382 10374 10367 10359 10351 10343 10334 10327 10319 10312 10306 10298 10290 10282 10273 10266 10260 10253 10247 10243 10239
10675 10672 10669 10666 10663 10659 10656 10652 10649 10646 10641 10637 10633 10630 10626 10622 10618 10613 10609 10604 10598 10592 10585 10583 10581 10572 10565 10562 10556 10551 10549 10546 10542 10539 10535 10531 10527 10523 10518 10513 10509 10505 10500 10496 10491 10487 10483 10478 10473 10467 10462 10457 10451 10445 10440 10434 10428 10422 10416 10410 10404 10398 10392 10386 10379 10371 10364 10357 10349 10341 10333 10325 10317 10308 10300 10294 10287 10280 10273 10264 10256 10249 10242 10235 10231 10227
10670 10667 10664 10661 10658 10654 10651 10647 10643 10640 10636 10632 10627 10624 10620 10616 10612 10606 10601 10596 10591 10586 10579 10573 10572 10569 10562 10556 10550 10546 10544 10541 10538 10534 10530 10526 10522 10518 10513 10508 10504 10499 10495 10490 10486 10482 10477 10472 10467 10461 10455 10450 10444 10438 10432 10426 10420 10414 10407 10401 10395 10388 10382 10375 10368 10360 10353 10346 10338 10330 10323 10315 10307 10299 10290 10283 10276 10270 10262 10254 10246 10240 10232 10225 10219 10215
10665 10662 10659 10655 10652 10648 10645 10641 10638 10634 10631 10627 10623 10619 10615 10610 10605 10600 10595 10589 10583 10578 10572 10566 10564 10563 10558 10552 10546 10541 10538 10536 10534 10530 10526 10522 10518 10513 10509 10504 10500 10495 10491 10486 10480 10476 10471 10466 10460 10454 10448 10442 10437 10431 10424 10418 10412 10406 10399 10392 10385 10378 10372 10365 10357 10350 10342 10335 10327 10319 10312 10305 10298 10290 10280 10272 10266 10259 10252 10244 10237 10230 10223 10216 10209 10204
10660 10657 10653 10650 10647 10643 10639 10636 10632 10629 10625 10622 10618 10613 10609 10605 10600 10595 10589 10583 10576 10571 10565 10559 10557 10556 10553 10548 10543 10538 10533 10529 10527 10524 10520 10517 10512 10509 10505 10500 10496 10492 10487 10482 10476 10470 10465 10459 10454 10448 10441 10435 10429 10423 10417 10411 10404 10397 10391 10383 10376 10369 10362 10355 10347 10340 10331 10323 10316 10308 10301 10294 10287 10280 10271 10263 10255 10249 10242 10234 10227 10221 10214 10208 10202 10195
10655 10651 10648 10645 10642 10638 10634 10630 10627 10623 10619 10616 10612 10608 10604 10599 10595 10589 10583 10577 10571 10564 10558 10553 10551 10551 10549 10544 10539 10535 10530 10525 10521 10517 10514 10510 10507 10504 10500 10496 10491 10486 10481 10476 10470 10465 10459 10453 10448 10442 10435 10428 10422 10416 10410 10403 10396 10389 10382 10375 10367 10359 10352 10345 10337 10329 10321 10312 10305 10297 10290 10283 10277 10269 10261 10253 10245 10239 10232 10224 10217 10211 10205 10199 10194 10187
10649 10646 10643 10639 10636 10632 10628 10625 10621 10617 10614 10609 10606 10602 10598 10594 10589 10584 10578 10572 10565 10558 10551 10547 10546 10546 10545 10541 10536 10531 10527 10523 10518 10513 10509 10505 10501 10498 10494 10489 10485 10480 10475 10469 10464 10458 10452 10447 10441 10435 10429 10422 10415 10409 10402 10395 10388 10381 10373 10366 10357 10349 10341 10335 10327 10319 10311 10302 10294 10287 10280 10273 10266 10258 10250 10242 10234 10228 10222 10215 10208 10202 10195 10190 10185 10180
10644 10640 10637 10634 10630 10627 10623 10619 10616 10612 10608 10603 10599 10596 10592 10589 10585 10580 10573 10566 10560 10553 10547 10543 10541 10541 10540 10538 10533 10528 10524 10520 10516 10510 10505 10501 10497 10492 10488 10483 10478 10474 10469 10463 10457 10451 10446 10440 10434 10428 10422 10415 10408 10401 10394 10386 10379 10371 10363 10355 10347 10338 10331 10324 10315 10308 10301 10293 10285 10278 10270 10263 10256 10248 10240 10231 10223 10216 10210 10204 10198 10192 10186 10180 10175 10170
10639 10635 10631 10628 10625 10621 10617 10613 10610 10606 10602 10598 10593 10589 10586 10583 10581 10576 10570 10562 10556 10550 10543 10538 10537 10536 10535 10534 10529 10522 10518 10515 10511 10506 10500 10497 10493 10487 10482 10477 10472 10467 10462 10456 10450 10444 10439 10433 10427 10421 10414 10407 10400 10392 10385 10377 10370 10362 10353 10345 10337 10328 10320 10313 10305 10298 10291 10284 10276 10269 10261 10253 10246 10238 10230 10221 10213 10206 10199 10194 10188 10183 10177 10171 10165 10160
10635 10630 10625 10622 10619 10615 10612 10608 10604 10601 10597 10592 10587 10583 10579 10576 10574 10571 10565 10559 10554 10547 10540 10534 10532 10531 10530 10528 10524 10517 10511 10509 10504 10499 10494 10490 10487 10482 10476 10471 10466 10461 10455 10449 10443 10436 10430 10424 10418 10412 10405 10398 10391 10383 10376 10368 10360 10353 10344 10336 10328 10319 10311 10303 10296 10289 10281 10273 10266 10259 10251 10243 10236 10228 10220 10212 10204 10196 10189 10183 10178 10173 10167 10162 10156 10151
10632 10626 10621 10617 10614 10610 10606 10603 10599 10595 10592 10587 10581 10577 10573 10569 10566 10563 10559 10555 10552 10546 10537 10528 10524 10525 10525 10523 10520 10513 10505 10502 10498 10492 10487 10483 10480 10476 10470 10464 10459 10453 10446 10440 10434 10427 10420 10414 10408 10402 10395 10388 10381 10373 10365 10357 10350 10343 10335 10327 10319 10310 10302 10294 10287 10279 10271 10263 10256 10248 10241 10233 10226 10218 10210 10202 10195 10187 10180 10173 10167 10162 10157 10152 10147 10141
10628 10623 10616 10612 10608 10605 10601 10597 10592 10589 10586 10582 10577 10572 10569 10564 10559 10556 10553 10550 10548 10543 10535 10525 10516 10515 10518 10516 10514 10508 10499 10495 10491 10485 10480 10475 10472 10468 10461 10456 10450 10444 10438 10430 10424 10418 10411 10404 10397 10391 10385 10378 10370 10363 10355 10347 10340 10333 10325 10318 10310 10300 10292 10285 10277 10270 10262 10253 10246 10237 10229 10223 10215 10207 10199 10191 10184 10178 10170 10163 10157 10152 10147 10142 10137 10131
10623 10619 10612 10607 10603 10599 10595 10592 10586 10582 10579 10576 10572 10568 10564 10560 10555 10552 10550 10546 10544 10541 10534 10524 10511 10507 10510 10509 10507 10504 10496 10490 10485 10479 10473 10469 10464 10460 10454 10448 10443 10437 10430 10423 10416 10410 10402 10395 10388 10380 10373 10366 10359 10353 10345 10338 10330 10322 10315 10307 10300 10291 10282 10275 10267 10260 10251 10242 10235 10226 10218 10211 10204 10197 10189 10181 10174 10167 10160 10154 10147 10141 10137 10132 10126 10121
10618 10614 10608 10600 10596 10593 10589 10585 10581 10576 10573 10570 10566 10562 10559 10556 10552 10548 10546 10543 10541 10538 10533 10526 10510 10499 10504 10506 10501 10498 10493 10487 10482 10473 10467 10463 10458 10454 10448 10441 10436 10430 10423 10416 10408 10401 10393 10386 10379 10371 10363 10355 10348 10341 10334 10327 10319 10311 10303 10296 10289 10281 10272 10263 10255 10248 10240 10231 10223 10215 10206 10200 10193 10186 10178 10170 10164 10156 10149 10143 10137 10131 10126 10121 10116 10111
10611 10610 10604 10595 10590 10587 10583 10579 10575 10571 10568 10564 10560 10557 10553 10552 10549 10544 10541 10538 10537 10535 10532 10529 10512 10492 10497 10503 10496 10491 10488 10483 10478 10469 10462 10458 10452 10448 10442 10436 10430 10423 10416 10409 10402 10394 10386 10378 10370 10362 10354 10346 10338 10330 10323 10315 10308 10299 10291 10284 10277 10269 10260 10250 10242 10234 10227 10219 10212 10204 10196 10189 10182 10175 10167 10159 10152 10145 10138 10132 10127 10121 10116 10110 10106 10101
10605 10604 10601 10592 10585 10582 10577 10573 10570 10567 10563 10560 10555 10552 10549 10548 10544 10540 10536 10531 10531 10529 10526 10528 10515 10488 10486 10497 10491 10484 10482 10477 10472 10466 10457 10452 10446 10441 10435 10429 10424 10417 10409 10402 10394 10387 10379 10370 10362 10352 10344 10336 10328 10320 10312 10304 10296 10287 10279 10271 10263 10255 10246 10237 10229 10222 10214 10207 10200 10193 10186 10178 10172 10165 10157 10149 10142 10135 10127 10121 10116 10111 10105 10100 10095 10091
10600 10597 10594 10588 10581 10577 10572 10568 10566 10562 10559 10555 10551 10548 10546 10544 10540 10536 10532 10526 10523 10521 10517 10522 10517 10488 10477 10487 10484 10477 10476 10470 10465 10460 10452 10445 10439 10433 10425 10419 10415 10408 10400 10393 10385 10378 10370 10362 10353 10344 10334 10325 10317 10309 10301 10292 10284 10275 10266 10257 10250 10242 10233 10225 10218 10210 10203 10195 10188 10181 10174 10167 10160 10154 10146 10138 10132 10124 10116 10110 10105 10100 10095 10090 10085 10081
10595 10592 10589 10583 10576 10571 10565 10562 10561 10557 10554 10550 10546 10544 10542 10539 10536 10532 10529 10523 10518 10515 10509 10513 10515 10492 10474 10477 10476 10470 10469 10463 10456 10452 10446 10438 10430 10424 10418 10410 10404 10397 10389 10382 10374 10366 10359 10351 10344 10336 10327 10318 10309 10300 10290 10281 10272 10264 10255 10246 10238 10230 10222 10213 10206 10199 10191 10183 10175 10169 10162 10155 10149 10142 10135 10128 10121 10114 10106 10099 10095 10090 10084 10079 10075 10070
10589 10587 10584 10579 10572 10565 10559 10557 10556 10552 10549 10546 10542 10540 10538 10534 10531 10527 10525 10521 10516 10511 10504 10505 10508 10495 10476 10470 10468 10465 10462 10455 10448 10442 10437 10431 10423 10415 10408 10401 10394 10387 10378 10370 10362 10354 10347 10339 10332 10324 10316 10307 10299 10289 10280 10270 10261 10252 10243 10234 10226 10218 10209 10201 10194 10187 10179 10171 10163 10157 10150 10143 10136 10130 10123 10117 10111 10104 10096 10089 10084 10080 10075 10069 10064 10060
10583 10580 10578 10575 10569 10561 10553 10551 10551 10548 10544 10542 10538 10536 10533 10529 10526 10522 10518 10516 10513 10507 10500 10497 10500 10493 10477 10467 10462 10458 10455 10448 10439 10432 10425 10420 10415 10407 10399 10392 10385 10378 10369 10361 10353 10345 10336 10328 10320 10311 10302 10294 10286 10278 10269 10260 10251 10242 10232 10222 10214 10206 10197 10188 10181 10174 10166 10158 10151 10144 10137 10131 10124 10117 10110 10104 10099 10093 10086 10079 10074 10069 10065 10060 10054 10049
10577 10573 10571 10570 10567 10561 10553 10547 10545 10543 10539 10536 10533 10531 10528 10524 10521 10517 10513 10510 10508 10504 10496 10489 10492 10489 10473 10461 10458 10453 10447 10440 10431 10422 10413 10407 10402 10397 10390 10384 10378 10370 10362 10354 10346 10337 10329 10319 10309 10299 10290 10280 10272 10265 10258 10250 10241 10231 10221 10210 10201 10194 10185 10175 10168 10160 10152 10145 10138 10131 10124 10118 10111 10104 10098 10092 10087 10082 10076 10069 10063 10059 10055 10050 10044 10039
10572 10567 10563 10562 10560 10558 10554 10549 10545 10541 10536 10532 10529 10526 10524 10519 10514 10510 10507 10503 10501 10500 10494 10482 10483 10486 10472 10456 10453 10447 10439 10434 10426 10417 10407 10398 10391 10385 10378 10373 10367 10359 10352 10344 10336 10328 10319 10309 10298 10287 10277 10268 10260 10252 10245 10237 10229 10219 10210 10198 10188 10180 10172 10163 10155 10147 10139 10132 10125 10118 10111 10105 10098 10091 10086 10081 10075 10070 10065 10058 10053 10048 10045 10040 10034 10029
10568 10562 10557 10555 10552 10550 10550 10547 10544 10540 10534 10529 10525 10522 10518 10514 10509 10503 10499 10496 10492 10492 10490 10477 10470 10475 10468 10455 10449 10442 10433 10428 10420 10411 10402 10392 10384 10378 10371 10364 10355 10346 10337 10328 10319 10312 10304 10296 10287 10277 10267 10257 10248 10240 10231 10222 10212 10203 10195 10186 10176 10167 10159 10151 10143 10135 10126 10118 10111 10104 10098 10091 10085 10078 10073 10069 10063 10058 10053 10047 10042 10038 10034 10030 10024 10020
10564 10559 10553 10550 10546 10544 10544 10542 10538 10535 10530 10526 10522 10518 10513 10508 10503 10498 10491 10487 10482 10480 10481 10473 10461 10457 10455 10449 10444 10434 10425 10419 10412 10403 10394 10384 10377 10371 10365 10357 10347 10335 10324 10314 10305 10296 10289 10282 10275 10267 10257 10246 10237 10228 10218 10208 10198 10187 10178 10170 10162 10153 10145 10138 10130 10122 10113 10105 10098 10091 10084 10078 10072 10066 10061 10056 10052 10047 10041 10036 10031 10027 10024 10020 10014 10010
10560 10555 10551 10547 10541 10538 10538 10536 10532 10529 10525 10521 10517 10513 10509 10502 10497 10492 10483 10477 10473 10468 10467 10465 10457 10447 10439 10437 10434 10424 10413 10407 10400 10392 10383 10373 10365 10359 10352 10344 10335 10324 10314 10304 10295 10286 10277 10269 10261 10253 10244 10233 10223 10214 10205 10197 10187 10177 10166 10156 10147 10138 10130 10122 10115 10107 10100 10092 10084 10077 10070 10064 10058 10053 10048 10044 10039 10035 10030 10024 10020 10017 10013 10009 10005 10001
10556 10552 10549 10545 10538 10532 10532 10530 10526 10523 10519 10515 10511 10507 10502 10495 10490 10485 10477 10468 10464 10460 10455 10452 10449 10441 10429 10423 10421 10413 10402 10394 10387 10379 10371 10360 10350 10343 10336 10328 10320 10311 10302 10292 10283 10274 10264 10255 10246 10237 10227 10217 10207 10198 10190 10184 10176 10166 10155 10144 10134 10125 10115 10107 10099 10092 10086 10078 10071 10064 10057 10050 10045 10040 10035 10031 10027 10023 10018 10014 10009 10006 10002 9999 9995 9991
10553 10550 10546 10543 10536 10529 10526 10524 10519 10516 10513 10509 10505 10500 10494 10489 10483 10477 10470 10461 10455 10453 10447 10441 10437 10433 10424 10416 10411 10403 10392 10382 10372 10363 10355 10347 10338 10330 10322 10314 10306 10298 10290 10281 10271 10262 10252 10241 10231 10222 10212 10202 10193 10183 10175 10167 10160 10151 10140 10129 10119 10110 10101 10092 10084 10077 10071 10064 10057 10050 10043 10037 10032 10027 10022 10019 10015 10011 10007 10003 9999 9995 9992 9988 9985 9982
10549 10547 10543 10540 10535 10527 10522 10519 10514 10509 10507 10504 10500 10494 10488 10483 10478 10471 10463 10453 10446 10445 10442 10434 10428 10423 10417 10410 10405 10399 10387 10373 10359 10346 10336 10330 10326 10319 10309 10300 10291 10283 10274 10265 10256 10246 10237 10227 10218 10209 10199 10188 10178 10169 10159 10149 10141 10133 10123 10112 10102 10093 10085 10076 10068 10061 10055 10049 10043 10036 10030 10024 10019 10013 10010 10007 10003 9999 9996 9992 9988 9984 9981 9978 9975 9972
10546 10543 10540 10536 10532 10525 10519 10516 10510 10505 10502 10499 10495 10489 10482 10477 10473 10467 10458 10446 10437 10432 10430 10425 10419 10413 10405 10398 10393 10390 10383 10371 10356 10340 10326 10318 10312 10307 10299 10289 10278 10269 10259 10248 10238 10229 10219 10210 10202 10193 10183 10172 10160 10150 10140 10130 10121 10113 10105 10095 10085 10077 10069 10061 10053 10045 10039 10034 10028 10022 10017 10011 10006 10001 9998 9995 9992 9988 9985 9981 9977 9973 9971 9968 9965 9962
10542 10539 10536 10532 10529 10523 10516 10512 10507 10501 10497 10495 10490 10484 10478 10473 10469 10464 10454 10441 10430 10423 10416 10410 10405 10398 10391 10383 10376 10372 10369 10361 10348 10332 10317 10306 10296 10288 10283 10276 10265 10256 10247 10236 10225 10214 10204 10193 10183 10174 10164 10152 10140 10129 10119 10111 10101 10094 10086 10076 10066 10059 10052 10044 10037 10030 10023 10019 10014 10008 10003 9998 9993 9989 9986 9984 9980 9977 9974 9971 9967 9963 9961 9958 9955 9952
10539 10535 10532 10528 10525 10520 10514 10508 10503 10497 10493 10490 10485 10478 10473 10468 10462 10458 10449 10433 10421 10417 10410 10401 10394 10386 10379 10372 10362 10356 10352 10347 10336 10320 10304 10296 10287 10275 10266 10259 10249 10239 10230 10220 10209 10198 10187 10175 10164 10154 10144 10133 10122 10110 10101 10093 10084 10077 10069 10058 10048 10040 10034 10028 10022 10015 10009 10004 9999 9994 9990 9985 9980 9977 9975 9972 9969 9966 9963 9960 9956 9953 9951 9948 9945 9943
10535 10531 10527 10523 10520 10515 10510 10504 10497 10492 10489 10485 10479 10470 10465 10460 10453 10449 10445 10430 10414 10408 10403 10396 10389 10380 10371 10363 10354 10345 10340 10337 10330 10313 10294 10284 10276 10264 10252 10241 10230 10220 10210 10199 10188 10177 10166 10154 10143 10134 10124 10113 10101 10088 10079 10074 10067 10061 10055 10045 10034 10026 10019 10014 10008 10002 9997 9991 9986 9982 9977 9973 9969 9966 9964 9961 9958 9955 9953 9949 9946 9943 9941 9938 9936 9934
10530 10526 10521 10518 10514 10509 10505 10500 10493 10486 10481 10477 10471 10463 10458 10453 10445 10440 10439 10429 10413 10402 10395 10388 10381 10373 10364 10356 10347 10337 10330 10328 10326 10313 10293 10277 10265 10250 10237 10225 10213 10201 10190 10180 10170 10159 10149 10138 10129 10119 10110 10099 10086 10072 10061 10055 10050 10045 10039 10031 10022 10013 10006 10000 9995 9989 9984 9979 9973 9969 9965 9961 9958 9955 9953 9950 9947 9944 9941 9938 9935 9933 9930 9928 9926 9924
10525 10520 10515 10511 10507 10502 10498 10493 10488 10482 10476 10469 10462 10456 10450 10445 10436 10428 10425 10418 10405 10394 10385 10376 10369 10362 10354 10347 10339 10330 10322 10318 10317 10307 10287 10269 10255 10239 10226 10214 10200 10186 10173 10161 10150 10143 10136 10127 10117 10107 10097 10086 10075 10062 10050 10042 10035 10029 10022 10014 10006 9999 9993 9987 9981 9976 9971 9966 9961 9957 9953 9949 9946 9944 9941 9938 9935 9933 9930 9927 9925 9922 9920 9919 9917 9915
10519 10515 10509 10504 10499 10494 10488 10483 10478 10473 10468 10460 10454 10448 10441 10434 10426 10419 10415 10408 10396 10384 10374 10364 10355 10346 10340 10335 10327 10318 10306 10296 10293 10286 10270 10253 10239 10224 10208 10194 10182 10170 10159 10147 10135 10125 10118 10109 10099 10089 10078 10067 10058 10049 10040 10031 10024 10016 10007 9999 9992 9986 9980 9975 9968 9963 9959 9954 9948 9944 9941 9938 9935 9932 9929 9927 9924 9922 9919 9916 9914 9912 9911 9909 9908 9906
10514 10509 10504 10498 10492 10486 10480 10474 10468 10462 10455 10449 10444 10439 10432 10425 10416 10408 10403 10399 10392 10381 10369 10357 10347 10336 10328 10320 10311 10300 10286 10269 10259 10253 10243 10229 10217 10205 10190 10176 10165 10154 10143 10132 10120 10107 10097 10088 10078 10069 10061 10051 10042 10034 10025 10017 10011 10003 9994 9986 9979 9973 9967 9961 9955 9950 9946 9941 9937 9933 9930 9927 9924 9921 9918 9916 9913 9911 9909 9906 9904 9903 9901 9900 9898 9897
10509 10504 10499 10492 10486 10479 10473 10468 10463 10455 10446 10439 10433 10427 10421 10416 10409 10400 10391 10383 10377 10373 10365 10352 10340 10327 10315 10305 10293 10281 10270 10255 10239 10228 10219 10209 10199 10191 10180 10168 10156 10143 10130 10116 10104 10092 10081 10073 10064 10055 10047 10037 10028 10019 10010 10002 9996 9989 9981 9974 9967 9961 9955 9949 9943 9938 9934 9930 9926 9923 9919 9916 9914 9910 9907 9905 9903 9901 9899 9897 9895 9893 9892 9891 9889 9888
10505 10500 10494 10488 10481 10474 10468 10462 10457 10449 10439 10431 10425 10416 10407 10403 10399 10393 10385 10373 10361 10355 10350 10339 10324 10310 10298 10289 10278 10264 10253 10242 10230 10217 10207 10197 10187 10176 10166 10153 10141 10129 10116 10105 10094 10084 10074 10065 10055 10044 10034 10024 10015 10007 9998 9990 9984 9976 9969 9962 9956 9949 9943 9937 9932 9927 9923 9919 9916 9912 9909 9906 9903 9900 9897 9896 9894 9891 9889 9888 9886 9885 9884 9882 9881 9880
10500 10494 10488 10482 10476 10468 10461 10455 10449 10441 10431 10424 10419 10411 10400 10391 10385 10379 10374 10365 10351 10338 10330 10320 10307 10292 10280 10271 10263 10252 10240 10230 10221 10209 10198 10186 10174 10161 10149 10136 10123 10113 10103 10093 10084 10073 10063 10054 10044 10034 10022 10012 10004 9995 9986 9979 9972 9965 9957 9951 9944 9937 9931 9926 9921 9917 9913 9909 9906 9902 9899 9896 9893 9890 9888 9886 9884 9882 9880 9879 9877 9876 9875 9874 9873 9872
10495 10489 10482 10475 10469 10462 10455 10449 10440 10431 10421 10412 10407 10402 10392 10380 10371 10362 10354 10346 10336 10324 10313 10305 10295 10282 10268 10258 10250 10241 10230 10219 10209 10197 10184 10171 10158 10145 10133 10122 10110 10100 10090 10079 10068 10057 10047 10039 10031 10022 10011 10000 9991 9984 9975 9967 9961 9954 9945 9939 9933 9926 9920 9915 9911 9907 9903 9899 9896 9892 9889 9886 9883 9881 9879 9877 9875 9873 9871 9870 9869 9868 9867 9866 9865 9864
10487 10482 10475 10468 10460 10452 10446 10441 10433 10422 10411 10401 10393 10387 10379 10367 10356 10346 10334 10324 10315 10305 10295 10287 10280 10271 10260 10249 10239 10229 10217 10205 10193 10181 10167 10154 10142 10130 10119 10109 10098 10087 10077 10067 10056 10045 10036 10027 10018 10009 10000 9989 9980 9972 9964 9956 9950 9944 9935 9928 9921 9916 9911 9906 9902 9897 9893 9889 9886 9883 9880 9877 9874 9872 9871 9869 9866 9864 9863 9861 9860 9860 9859 9858 9857 9856
10480 10473 10467 10460 10453 10444 10435 10428 10421 10411 10400 10388 10379 10372 10363 10354 10345 10336 10325 10315 10305 10294 10284 10275 10267 10258 10247 10234 10222 10212 10201 10188 10176 10165 10152 10139 10128 10118 10108 10098 10088 10077 10067 10057 10046 10036 10027 10018 10007 9997 9989 9980 9971 9963 9955 9947 9940 9933 9926 9919 9912 9906 9901 9897 9893 9888 9884 9881 9877 9874 9871 9868 9866 9864 9862 9860 9858 9856 9855 9853 9853 9852 9851 9850 9850 9849
10473 10466 10460 10452 10444 10437 10428 10419 10410 10402 10392 10381 10373 10364 10353 10342 10332 10322 10314 10307 10299 10290 10279 10267 10255 10244 10232 10219 10206 10196 10185 10172 10159 10150 10139 10127 10116 10106 10096 10085 10075 10065 10055 10044 10034 10024 10014 10005 9995 9986 9979 9971 9962 9954 9946 9939 9932 9924 9918 9911 9904 9898 9893 9889 9884 9880 9876 9872 9869 9866 9863 9860 9858 9856 9854 9852 9851 9849 9847 9846 9845 9844 9844 9843 9842 9842
10464 10458 10452 10444 10434 10426 10421 10413 10404 10394 10382 10371 10363 10357 10349 10340 10330 10319 10307 10298 10289 10279 10267 10254 10240 10227 10216 10204 10191 10180 10171 10159 10147 10137 10126 10114 10103 10093 10082 10071 10061 10052 10043 10034 10023 10013 10004 9995 9986 9977 9968 9961 9953 9944 9936 9929 9922 9916 9909 9903 9896 9891 9886 9881 9876 9873 9869 9865 9862 9859 9856 9853 9851 9849 9847 9845 9844 9842 9841 9839 9838 9837 9837 9836 9836 9835
10456 10449 10443 10437 10428 10417 10409 10402 10396 10389 10380 10367 10358 10351 10344 10336 10328 10316 10302 10289 10276 10264 10253 10242 10229 10215 10200 10187 10176 10168 10160 10150 10138 10127 10115 10102 10091 10081 10070 10060 10051 10041 10032 10023 10013 10003 9994 9985 9976 9966 9956 9948 9941 9934 9926 9919 9912 9906 9901 9895 9889 9884 9878 9873 9869 9866 9862 9858 9855 9852 9849 9847 9844 9842 9840 9838 9837 9836 9834 9833 9832 9831 9830 9830 9829 9828
10447 10440 10433 10427 10421 10411 10401 10392 10386 10382 10377 10367 10356 10344 10333 10322 10312 10301 10288 10275 10263 10250 10238 10228 10218 10206 10193 10178 10165 10156 10148 10138 10127 10117 10105 10090 10079 10069 10058 10048 10040 10032 10022 10013 10004 9995 9985 9974 9964 9955 9946 9937 9929 9923 9917 9910 9904 9898 9893 9888 9882 9877 9871 9866 9862 9858 9855 9851 9848 9845 9842 9840 9838 9835 9833 9832 9831 9829 9827 9826 9825 9824 9823 9823 9823 9822
10437 10430 10423 10417 10411 10404 10395 10384 10374 10365 10358 10350 10340 10329 10318 10306 10296 10284 10271 10259 10248 10236 10223 10212 10204 10196 10187 10174 10158 10144 10135 10126 10114 10104 10093 10080 10068 10058 10048 10036 10028 10021 10012 10003 9994 9984 9974 9963 9953 9945 9936 9928 9921 9915 9909 9903 9897 9891 9885 9880 9875 9869 9864 9859 9854 9851 9848 9844 9841 9838 9835 9833 9831 9829 9827 9825 9824 9822 9821 9820 9819 9818 9817 9817 9816 9816